Orbital Elements at Epoch 2459200.5 (2020-Dec-17.0) TDB
Reference: JPL 23 (heliocentric ecliptic J2000)
Element | Value | Uncertainty (1-sigma) | Units |
e | .1540369273369886 | 3.7533e-08 | |
a | 2.662919125381219 | 1.7278e-08 | au |
q | 2.252731245560595 | 1.0391e-07 | au |
i | 8.189286164825926 | 5.806e-06 | deg |
node | 237.074926842117 | 3.2524e-05 | deg |
peri | 76.94609907973224 | 3.895e-05 | deg |
M | 317.5692896445046 | 2.3543e-05 | deg |
tp | 2459387.573897283141 (2021-Jun-22.07389728) | 0.00010446 | TDB |
period | 1587.213658637425 4.35 | 1.5448e-05 4.229e-08 | d yr |
n | .22681256429525 | 2.2075e-09 | deg/d |
Q | 3.073107005201843 | 1.9939e-08 | au |
|
| | Orbit Determination Parameters
Additional Information
|